Wind_Speed
84 81 78 77 74 70 67 67 67 67 66 65 63 61 60 60 59 60 60 55 49 46 44 42 43 42 40 39 38 36 37 38 41 45 50 52 53 53 52 50 49 49 45 42 41 38 35 35 37 40 43 45 46 47 46 47 48 47 46 45 44 43 42 42 41 41 40 39 38 37 37 36 35 35 34 34 34 34 34 34 34 34 34 35 36 37 37
88 84 80 77 75 73 71 69 70 69 68 66 66 65 64 63 62 62 61 58 53 51 51 49 47 44 42 40 38 37 38 39 41 44 48 52 53 54 52 51 51 49 47 45 43 39 36 36 37 40 43 45 47 47 47 47 47 47 46 46 45 45 44 43 42 41 41 40 39 38 36 35 35 35 35 35 35 35 36 36 36 36 36 37 38 38 39
88 85 81 79 77 76 74 70 69 69 68 68 69 69 67 66 65 64 63 61 58 55 55 51 46 43 42 39 38 40 41 41 42 44 47 51 52 52 52 52 53 51 48 48 46 41 37 36 38 40 43 45 46 47 47 47 46 46 46 46 45 45 45 44 43 42 42 41 40 38 37 37 37 37 37 37 37 37 38 37 37 37 37 38 39 39 40
87 85 82 81 79 77 74 72 70 70 70 70 71 70 69 69 68 67 66 63 60 59 57 52 46 44 42 41 42 44 44 43 43 43 44 47 49 52 54 55 55 55 53 53 51 45 40 39 40 41 43 45 46 47 47 47 47 47 47 46 46 45 45 44 43 43 42 42 41 39 39 39 39 38 38 39 39 39 38 38 37 37 38 39 39 40 42
87 85 83 82 81 79 77 74 72 71 71 73 74 73 72 71 70 68 66 64 64 63 57 51 47 45 46 47 47 45 43 41 40 41 42 44 48 52 55 57 58 59 57 55 54 50 47 45 44 43 43 44 45 46 47 47 48 48 47 47 46 45 45 45 44 43 43 43 42 41 40 40 39 40 40 39 39 39 39 38 39 39 40 41 42 43 45
88 87 87 87 85 83 81 78 75 75 76 77 78 76 74 73 72 71 69 68 68 63 56 52 52 51 51 50 47 44 42 40 40 41 42 43 45 50 55 58 59 59 57 56 56 55 52 50 48 46 45 45 45 46 47 48 49 48 48 47 47 46 46 45 45 44 44 43 43 42 41 41 41 41 41 40 39 40 40 41 41 42 42 43 44 45 46
91 91 92 91 86 82 81 79 79 78 77 76 79 79 78 79 79 78 74 71 69 64 58 57 58 56 53 49 45 43 43 42 42 42 42 42 44 48 53 56 57 57 58 57 58 57 55 53 51 49 48 47 46 46 47 48 49 49 48 48 47 47 46 46 46 45 45 44 43 43 43 42 42 43 43 42 42 42 43 43 44 44 44 45 46 46 47
93 94 95 91 85 83 83 81 80 80 79 79 83 84 83 82 81 77 73 69 66 61 58 60 62 59 54 49 46 45 46 46 45 43 42 42 42 44 47 51 55 58 59 58 56 55 55 55 54 52 50 49 48 48 47 47 48 48 48 47 47 47 46 47 47 46 45 44 44 44 44 44 44 44 44 44 44 43 44 44 45 45 45 46 47 47 48
94 96 95 89 86 87 86 82 83 84 83 84 86 85 84 83 79 75 71 69 67 64 65 68 66 61 56 51 50 51 50 48 44 41 38 38 37 38 42 48 54 58 59 60 59 57 55 54 54 55 53 51 50 49 48 48 48 47 47 48 48 47 47 47 46 45 45 44 44 44 45 45 45 44 44 44 44 44 44 45 46 46 46 48 49 50 51
97 97 95 92 91 90 85 83 86 88 86 86 86 84 84 84 80 76 75 75 73 71 71 69 63 57 54 53 55 55 51 45 42 39 38 38 37 38 42 46 50 53 57 60 60 60 58 55 54 54 54 53 52 51 51 50 49 49 48 49 49 48 48 47 46 46 45 45 45 45 45 46 45 45 45 45 45 45 46 46 47 48 49 51 52 53 53
97 96 96 95 93 90 87 88 92 91 87 87 85 83 86 87 83 81 81 79 76 72 69 64 58 55 57 60 61 56 49 44 42 41 41 39 39 40 42 43 44 48 53 56 58 60 61 59 57 56 54 54 53 53 53 52 51 51 50 50 49 49 49 48 47 47 47 47 47 47 47 47 47 47 47 47 47 48 48 49 50 51 52 52 52 52 52
96 96 97 97 95 94 93 94 95 93 89 89 88 87 89 88 83 82 81 77 74 71 67 64 61 61 63 66 62 52 46 44 44 44 43 41 40 42 42 41 42 44 46 50 54 57 59 60 60 58 57 56 55 55 54 54 53 53 52 51 50 50 50 50 49 49 49 48 48 48 48 48 48 48 49 49 49 49 49 49 50 49 49 49 48 47 46
98 97 98 100 99 98 98 98 98 95 92 92 93 91 90 87 83 82 81 77 73 70 66 65 66 66 67 66 59 51 48 48 48 49 47 44 43 44 42 42 43 42 41 44 48 51 54 57 57 57 57 57 57 56 56 55 55 54 53 52 52 51 51 51 51 50 50 49 49 49 49 48 48 48 49 48 48 47 47 46 45 44 43 42 41 41 40
99 98 100 102 101 100 100 100 98 94 92 93 93 90 87 85 83 82 82 78 74 71 69 70 69 67 67 66 61 57 55 52 51 52 50 46 45 45 44 43 43 41 41 42 43 45 48 50 51 53 54 55 55 55 55 55 55 54 53 53 53 52 52 52 52 51 50 49 48 46 46 45 45 45 44 44 43 42 41 40 39 39 38 37 37 37 37
100 100 101 103 102 101 100 100 97 95 93 93 92 89 86 84 82 81 82 79 74 72 72 71 70 68 67 67 64 61 58 55 53 52 50 48 46 46 45 44 44 43 42 41 41 41 43 44 45 47 49 50 51 51 51 51 51 51 51 51 50 50 49 48 47 46 45 44 43 41 41 40 40 40 39 39 38 38 37 36 36 36 36 36 36 36 37
102 102 103 103 102 100 99 99 97 95 94 93 93 91 88 86 83 82 82 79 76 74 73 72 70 69 67 66 66 65 62 58 55 53 51 50 49 47 46 46 45 45 43 41 41 41 41 42 43 43 44 45 45 45 45 46 46 45 45 44 43 41 40 39 38 38 37 37 37 37 37 37 36 36 36 36 36 36 36 36 35 36 36 36 36 36 37
103 104 104 103 101 100 99 97 94 93 93 93 92 91 89 85 83 83 82 80 78 77 75 73 72 71 68 68 68 67 65 62 59 56 54 52 51 49 48 47 46 46 44 43 44 43 43 43 43 42 42 42 41 42 42 42 41 40 39 37 37 36 36 35 36 35 35 36 36 36 35 35 35 35 35 35 35 36 36 36 36 37 37 37 37 38 38
102 103 103 102 101 101 98 94 92 92 92 92 92 91 89 86 84 83 83 82 80 78 76 75 74 72 70 69 69 68 67 65 62 60 57 55 53 52 51 50 49 48 46 46 46 45 45 44 43 43 43 42 41 41 41 40 38 37 36 37 37 37 37 37 37 37 37 37 37 36 36 36 37 37 37 37 37 37 38 38 38 39 39 39 40 40 41
102 103 103 102 101 101 98 93 92 93 92 91 91 91 90 89 86 84 84 83 82 79 77 76 75 73 72 71 70 69 68 67 66 64 61 58 56 55 54 54 54 51 48 48 48 47 47 46 45 45 44 43 43 42 41 40 39 38 38 39 39 39 40 39 39 39 39 39 39 39 38 39 39 40 40 40 40 40 41 41 41 42 42 43 43 43 44
101 102 102 101 100 100 97 93 91 91 90 89 89 90 91 91 88 85 84 84 83 81 79 78 77 75 74 73 72 70 69 69 68 67 65 61 59 57 56 57 57 55 52 51 51 50 49 49 48 47 46 45 44 43 43 42 41 41 41 41 42 42 42 41 41 41 41 41 41 41 42 42 42 42 43 43 43 43 44 44 44 45 45 46 46 46 47
99 99 100 99 98 97 95 91 91 91 89 87 86 89 91 92 89 87 86 85 84 83 81 80 78 77 75 74 73 72 71 70 70 70 68 65 62 60 58 59 60 59 57 55 54 54 53 51 50 50 49 49 47 46 45 45 45 44 44 44 44 44 44 43 43 43 44 44 44 44 45 45 45 45 46 46 46 46 46 46 47 48 48 48 49 49 50
100 98 98 98 97 96 94 92 92 91 89 86 87 89 91 92 90 88 88 87 86 85 84 82 80 78 77 75 74 73 72 72 72 72 71 69 66 64 62 61 62 62 61 59 58 57 56 54 52 52 52 52 51 50 49 49 49 48 48 47 47 46 46 46 46 47 47 46 47 48 48 48 48 49 49 49 49 49 49 49 50 51 51 51 52 52 53
100 98 97 96 95 93 91 90 89 88 87 87 88 88 89 90 90 89 88 88 87 86 85 83 81 79 78 76 75 74 74 73 73 73 73 72 70 68 66 65 64 64 63 62 61 60 59 57 56 55 55 54 54 54 53 53 52 51 51 51 50 50 50 50 50 51 51 50 50 52 51 51 52 52 52 53 52 52 52 53 54 54 54 55 55 56 56
100 99 97 95 92 90 88 87 86 85 85 85 86 86 87 89 90 90 89 88 88 87 86 85 83 81 79 78 77 76 75 74 74 74 74 74 73 72 70 69 67 66 65 64 64 63 62 61 59 58 57 57 57 57 56 56 56 55 55 55 54 54 54 55 54 55 54 53 54 55 55 55 55 55 56 56 56 56 57 57 57 57 58 58 59 59 60
101 99 97 94 90 87 86 86 86 85 85 85 87 89 90 90 91 91 90 89 89 88 87 86 85 83 81 79 78 77 77 76 76 75 75 75 75 74 73 72 70 69 68 67 66 66 65 64 63 62 62 61 61 60 60 60 60 59 59 58 57 57 58 58 58 58 58 57 58 58 58 58 58 58 59 59 59 60 61 61 61 61 61 62 62 63 63
101 99 96 92 88 86 85 85 86 86 87 87 88 90 91 91 90 90 90 89 89 88 88 88 87 86 84 82 80 79 79 78 78 77 77 77 76 76 75 75 73 72 71 69 68 68 68 67 66 65 65 65 64 64 64 64 64 63 62 60 60 60 60 61 61 61 61 61 61 61 62 61 61 62 62 62 62 63 64 65 65 65 65 65 66 66 66
101 99 95 92 88 85 83 83 84 86 87 86 86 88 90 89 88 87 88 88 89 90 90 89 89 88 87 85 83 82 81 80 80 79 79 79 78 77 77 77 75 74 73 72 71 71 71 70 69 68 68 67 67 67 68 67 67 66 64 63 63 63 63 63 63 63 64 64 64 64 65 65 65 65 65 65 66 66 66 68 68 68 69 69 69 70 70
103 100 96 92 89 87 85 85 85 86 86 85 85 86 88 88 87 87 88 89 90 91 91 91 91 90 89 88 87 85 84 83 82 82 81 81 80 79 78 78 77 75 74 74 74 74 74 74 73 72 71 70 70 70 70 70 69 68 67 67 67 67 66 66 67 67 67 67 67 67 67 68 68 68 68 68 69 69 69 70 71 71 72 72 72 73 73
105 103 99 95 93 92 90 88 86 86 85 85 85 86 87 88 88 88 89 90 91 92 93 93 93 93 92 91 90 88 87 85 84 83 83 82 81 80 80 79 78 77 77 76 76 76 77 76 76 75 74 74 73 73 72 72 72 71 70 70 70 70 70 70 70 70 70 70 70 70 70 70 70 70 71 71 71 72 72 73 73 74 74 74 75 75 76
104 103 100 97 96 95 93 90 87 86 85 85 86 87 88 88 88 89 90 91 92 94 95 95 95 94 94 93 93 92 91 89 86 85 85 84 83 82 81 80 79 79 79 79 79 79 78 78 77 77 77 77 77 76 76 76 75 75 74 73 73 73 73 73 73 73 73 72 72 72 73 73 73 73 73 74 74 75 75 76 76 77 77 77 77 78 78
103 103 101 100 100 98 95 92 90 88 86 86 86 87 88 88 88 89 91 92 93 94 96 96 96 96 96 95 95 95 94 92 89 89 88 88 86 85 83 81 80 80 80 81 81 80 80 79 79 79 79 79 79 79 79 79 79 78 78 78 77 77 76 76 76 76 75 75 75 75 75 76 75 76 76 77 78 78 79 79 79 79 79 79 80 80 81
101 102 102 102 101 100 97 94 92 89 88 86 85 86 87 88 88 89 91 93 95 96 96 96 97 97 97 97 97 97 96 95 94 93 92 90 89 89 86 84 82 82 82 82 81 81 81 81 81 81 81 82 82 82 82 83 83 82 82 81 80 80 79 79 79 78 78 78 78 78 78 78 79 79 80 81 81 82 82 82 82 82 81 81 82 83 84
98 100 101 101 100 99 98 96 93 91 89 86 85 85 87 88 89 90 92 93 95 96 96 96 97 98 99 99 99 100 99 98 97 97 96 93 91 90 88 87 85 85 85 84 83 83 83 83 83 83 83 84 84 85 85 85 85 85 84 84 83 83 82 82 82 81 81 81 81 81 81 82 82 83 83 84 84 84 84 84 84 84 84 84 85 86 86
94 98 100 100 100 98 98 97 95 93 90 87 86 85 86 87 88 90 92 93 94 95 95 96 97 99 100 101 102 102 101 100 98 97 97 97 96 94 91 87 87 87 88 88 87 86 85 85 85 85 85 86 86 87 87 87 86 86 86 85 85 85 85 84 84 84 84 84 84 84 84 85 85 85 85 86 86 85 85 85 86 86 86 86 86 87 88
89 94 98 100 100 98 98 97 96 94 91 89 88 87 86 87 88 90 91 92 92 94 96 97 98 99 101 103 104 103 103 103 101 98 97 96 97 97 95 92 90 89 89 90 90 90 90 90 90 89 89 88 88 88 88 88 87 87 87 87 86 86 86 87 87 87 87 87 87 87 87 86 87 87 87 87 86 86 86 87 88 88 88 88 88 89 90
82 89 94 98 98 98 97 97 97 95 93 91 90 89 88 88 89 90 90 91 92 94 96 98 99 101 103 105 105 105 105 105 104 104 102 99 95 94 94 95 95 93 91 90 90 90 90 91 91 92 92 92 92 91 91 90 90 89 88 88 88 88 88 88 88 88 88 88 88 88 88 87 87 88 88 88 88 88 88 89 90 90 90 91 91 91 92
74 81 88 93 95 96 96 97 97 97 95 93 91 89 89 89 89 89 90 91 92 93 95 97 100 102 104 106 106 106 107 106 105 106 108 107 102 98 96 97 97 95 93 91 89 88 88 89 90 91 92 92 92 93 93 93 93 93 92 91 90 90 91 91 90 90 90 90 90 90 90 90 90 90 91 91 91 91 92 92 93 93 93 93 93 94 94
65 73 80 86 90 93 94 94 95 96 95 93 91 90 89 89 89 89 89 90 91 92 95 97 101 104 106 106 106 106 106 107 107 108 109 109 107 104 103 102 101 99 97 95 92 89 87 87 87 88 90 91 91 92 92 93 94 95 95 95 94 94 94 94 94 94 94 94 94 94 94 94 94 94 95 95 94 94 95 95 95 95 95 95 95 95 95
55 63 71 78 84 88 90 91 91 92 93 93 92 90 90 89 89 89 89 90 91 93 95 98 101 103 105 106 106 106 106 107 108 109 109 109 108 107 107 107 107 106 105 104 102 99 94 91 89 88 88 89 90 91 91 92 93 94 95 96 96 97 97 97 98 97 97 97 97 97 97 97 97 97 98 97 97 96 97 97 97 97 97 97 97 97 96
46 53 61 68 75 81 85 87 88 89 90 92 92 91 90 90 90 90 90 91 92 94 96 98 100 101 103 105 105 105 106 106 107 107 108 109 109 109 109 109 109 109 109 109 108 107 105 102 100 98 95 94 93 92 91 90 90 91 92 93 94 95 96 97 98 99 99 99 99 100 100 100 100 100 100 99 99 99 99 99 99 99 99 99 98 98 97
37 43 50 57 64 71 77 82 84 86 87 89 91 92 91 90 90 90 91 92 93 94 95 97 98 100 102 103 103 103 104 105 106 106 107 108 108 109 110 110 110 111 111 110 110 110 109 109 109 108 107 105 103 101 99 97 97 97 97 98 98 98 99 99 100 100 101 101 102 102 102 102 102 102 102 101 101 101 100 100 100 100 100 100 100 99 98
29 34 40 46 52 59 67 73 78 81 84 87 89 91 91 91 91 91 92 92 93 94 95 97 98 98 99 101 101 101 103 105 106 106 107 107 108 109 109 110 111 111 111 111 112 111 111 112 112 112 112 110 109 109 108 107 106 106 105 104 104 103 103 103 103 103 103 104 104 105 105 105 104 104 104 103 103 103 102 102 102 101 101 100 100 98 95
24 28 32 37 42 48 54 62 68 74 79 83 86 88 90 91 92 92 92 93 95 96 96 96 96 97 98 99 99 100 101 103 104 105 106 107 108 108 109 109 110 111 111 112 112 112 113 113 113 113 113 113 113 112 112 111 110 109 109 108 107 107 106 106 106 105 105 106 106 106 107 106 106 106 105 104 104 104 103 103 103 102 101 100 98 96 92
21 23 26 29 34 38 44 49 56 63 71 77 81 84 87 90 92 94 94 95 97 97 95 95 95 96 97 98 99 99 99 101 102 103 105 106 107 107 108 108 109 110 111 112 112 113 113 113 113 114 114 114 114 114 113 113 112 112 111 111 110 110 109 108 108 107 107 107 107 107 107 107 107 107 106 105 105 105 104 103 102 102 100 98 95 93 91
17 19 21 24 28 32 36 41 45 52 59 67 74 79 83 88 92 95 97 98 98 97 95 95 96 96 97 97 97 97 98 99 101 102 103 104 105 106 106 107 108 109 110 111 111 112 112 113 113 114 114 114 114 114 113 113 113 113 112 112 111 111 110 110 109 108 108 108 107 107 107 108 108 107 107 106 105 105 105 104 103 101 99 96 94 93 93
16 18 20 22 24 28 32 36 40 45 50 56 63 70 77 83 88 93 96 98 99 99 99 98 98 98 98 98 98 97 98 99 101 101 102 103 103 104 105 106 107 108 109 110 110 111 111 112 112 113 113 113 113 113 113 113 113 113 113 112 112 111 110 110 109 109 109 108 108 108 108 108 108 107 107 106 105 105 104 103 102 100 99 97 96 96 96
20 20 21 22 23 25 28 32 36 40 45 50 55 61 68 74 81 87 92 95 98 99 100 100 100 100 100 100 99 99 98 99 99 100 100 101 101 102 103 104 105 106 107 107 108 109 109 110 110 111 111 112 112 112 112 112 112 112 112 111 111 111 110 110 110 109 109 109 108 108 107 107 107 107 106 105 104 103 103 101 100 100 99 99 98 98 97
23 24 25 25 25 26 27 29 32 36 40 45 49 54 60 66 73 79 85 90 94 97 99 100 102 102 102 102 101 100 99 98 99 99 99 99 100 100 101 102 103 103 104 105 106 107 107 108 108 109 109 110 110 110 111 111 111 111 111 111 110 110 110 109 109 109 108 108 108 107 107 106 106 105 104 103 102 102 101 100 100 99 99 98 98 97 97
25 26 27 28 28 28 28 29 31 34 36 40 44 49 54 60 66 71 77 83 89 93 97 100 102 103 104 104 103 102 101 101 100 100 100 99 99 99 100 100 100 101 102 103 103 104 105 106 106 107 107 108 108 109 109 110 110 110 110 110 109 109 109 108 108 108 108 107 106 106 105 104 103 102 102 101 101 100 100 100 100 99 99 98 98 97 98
29 29 29 30 30 31 30 30 31 33 35 37 40 45 50 55 60 66 70 75 81 86 91 96 99 102 103 104 105 105 104 104 103 103 102 101 101 100 100 99 99 100 101 101 102 103 104 104 105 105 105 105 106 106 107 108 108 108 108 109 108 108 107 107 106 106 105 105 104 103 102 102 101 100 100 99 99 99 100 100 100 100 99 99 99 99 100
33 32 32 32 33 33 33 32 33 35 36 37 39 41 45 50 55 60 65 70 74 79 83 88 93 97 99 102 103 105 106 106 106 106 105 104 103 103 102 102 101 102 102 102 103 103 104 104 105 105 104 104 104 105 105 105 105 106 106 106 106 106 106 105 105 104 104 103 103 103 102 102 101 101 101 100 101 101 101 101 101 101 101 101 101 102 102
36 36 36 36 37 37 36 36 36 38 39 39 40 42 43 46 49 54 59 64 69 73 77 81 84 88 92 96 98 100 103 104 105 106 106 106 106 106 106 105 105 105 105 105 105 105 105 106 106 106 106 106 106 106 106 105 106 106 106 106 105 105 105 105 104 104 103 103 103 104 104 104 104 104 103 103 103 103 104 104 104 104 104 105 105 106 106
Wind_Direction
225 225 222 221 221 220 218 217 218 219 220 219 218 218 217 219 223 227 230 230 227 228 229 225 226 229 231 232 230 226 223 221 220 219 219 218 218 218 217 216 217 220 220 220 222 223 222 222 221 217 211 208 209 211 213 216 218 219 221 222 224 225 227 230 233 236 238 240 243 245 247 249 250 251 252 254 256 257 257 259 261 263 265 267 270 273 276
222 222 221 221 221 221 219 217 217 218 220 220 218 217 217 217 221 225 229 230 228 227 228 226 225 228 230 231 230 228 226 223 222 221 219 218 218 217 216 216 219 221 221 222 225 227 226 224 223 221 217 213 212 212 214 216 219 221 222 224 226 228 229 230 233 236 238 240 242 244 247 248 249 250 250 252 255 257 258 259 260 262 264 267 270 273 277
222 221 220 219 220 221 220 218 217 217 219 220 219 218 217 217 219 223 227 229 228 228 229 227 225 229 232 231 230 231 228 225 223 221 219 218 217 216 215 216 218 220 221 223 225 226 224 222 223 222 220 218 217 216 216 218 219 221 223 225 226 228 229 230 232 235 239 241 243 245 246 247 247 248 249 251 253 255 257 258 261 263 266 268 271 275 277
221 221 220 219 219 219 220 218 217 217 218 220 221 219 218 219 220 222 226 228 228 229 229 227 225 228 230 228 227 228 229 227 226 224 223 221 218 217 215 215 216 218 219 221 223 225 225 223 223 223 221 220 219 219 219 219 221 222 224 225 227 229 231 232 233 236 239 243 244 245 246 247 248 249 250 251 253 255 258 260 262 265 268 271 273 275 277
219 220 220 220 218 218 218 218 217 216 215 217 220 219 218 219 220 221 224 226 228 228 228 226 225 226 227 225 224 226 229 229 229 228 226 222 220 218 217 215 216 217 218 219 222 226 227 226 224 223 223 222 221 221 221 222 223 224 226 227 229 230 232 235 236 238 240 243 245 246 247 248 250 251 251 253 255 257 260 262 264 266 268 271 273 275 277
218 218 219 219 217 216 217 216 216 216 214 214 217 219 218 218 220 221 221 223 227 228 227 227 227 225 226 226 225 226 229 229 229 228 227 224 221 220 219 217 217 218 219 221 223 225 226 226 225 225 224 224 223 223 223 223 224 225 227 228 230 231 233 236 238 240 241 243 245 247 248 250 251 253 254 255 257 259 261 263 265 267 269 271 274 276 279
218 218 218 219 217 217 217 216 215 216 215 214 216 218 218 217 218 220 220 222 226 227 226 227 228 226 225 227 226 225 227 228 228 227 226 224 222 221 221 220 219 218 220 222 223 224 225 227 227 227 226 226 226 225 226 226 227 228 229 230 232 234 235 237 239 241 242 244 246 248 250 251 253 254 256 257 258 260 262 265 267 269 272 274 276 278 280
218 218 219 219 217 216 216 216 216 217 215 214 215 217 218 219 219 220 221 222 225 227 227 228 229 227 224 223 224 224 224 225 226 227 227 226 224 224 224 223 222 221 221 222 224 224 225 226 227 227 228 228 228 229 229 230 230 231 232 233 234 236 237 239 241 243 244 246 248 250 252 253 254 255 257 259 260 262 264 267 269 271 274 276 277 279 281
218 219 220 220 217 216 215 214 216 218 216 216 216 216 218 220 220 220 221 222 222 222 224 226 227 226 223 220 220 222 222 223 226 228 230 229 227 226 226 225 224 223 223 224 224 225 226 226 226 227 227 228 230 231 231 232 232 232 233 234 235 237 239 240 242 244 246 248 249 251 253 254 256 258 259 262 263 265 267 269 271 273 275 277 278 280 281
216 217 219 219 217 217 215 214 216 218 217 218 218 217 218 220 219 218 218 219 220 220 223 226 228 229 228 225 224 222 221 222 224 226 227 227 225 225 226 226 225 225 225 226 226 226 226 227 227 227 227 228 230 231 233 234 235 235 236 237 238 239 241 242 244 245 247 249 250 252 254 256 258 260 262 264 266 267 269 271 273 275 276 277 278 279 280
215 215 217 218 217 216 215 214 216 217 217 218 219 218 219 219 218 217 218 218 219 221 223 226 229 229 231 231 229 225 221 220 222 223 224 225 224 225 227 228 227 227 227 227 228 228 228 228 229 229 229 230 231 232 234 235 236 238 239 240 241 243 244 246 247 248 249 251 252 254 256 258 260 262 264 266 268 269 271 272 274 275 275 276 277 277 278
214 214 216 217 217 216 215 214 215 215 215 217 218 218 219 219 217 218 221 220 220 220 221 223 224 225 228 231 229 224 221 220 220 222 223 223 224 226 227 229 230 230 230 230 230 230 230 231 231 231 232 233 234 234 235 237 238 239 241 243 245 246 247 248 249 251 252 253 255 257 259 261 263 265 266 267 268 270 271 271 272 273 273 274 275 276 277
213 213 214 216 216 215 215 215 215 214 214 216 218 217 218 218 216 217 221 221 220 220 220 221 223 225 228 231 229 224 222 220 219 220 221 221 223 225 226 227 229 230 231 232 232 233 233 233 233 234 234 235 236 237 238 239 240 241 243 244 246 247 249 250 251 253 254 256 258 260 261 262 263 264 265 266 266 267 267 268 269 270 271 273 275 277 279
213 213 214 215 215 215 215 216 216 215 214 216 218 218 218 218 217 217 219 220 220 219 219 221 222 224 228 231 230 226 224 221 220 220 220 220 223 224 224 226 228 228 230 232 233 234 235 236 235 236 236 235 236 238 239 241 242 244 245 246 248 249 251 253 254 255 256 256 257 258 258 259 260 261 262 262 263 264 264 265 267 269 271 273 276 278 281
213 214 214 215 215 215 215 216 215 215 214 216 218 219 218 218 217 217 219 220 220 220 220 221 222 224 227 230 231 230 228 225 223 223 222 222 224 224 222 223 225 226 228 230 231 233 235 236 236 236 237 237 237 237 239 240 242 244 246 247 248 250 251 252 253 253 253 253 252 252 253 254 255 258 259 261 262 264 265 267 268 270 273 275 277 279 280
213 214 215 215 215 215 215 215 215 214 213 214 217 218 218 217 217 217 218 219 219 220 221 221 223 224 227 229 230 231 231 228 226 224 223 223 223 224 221 220 222 224 226 228 229 230 231 233 233 234 234 235 235 235 235 236 237 238 240 241 242 243 244 245 246 247 247 248 248 249 251 253 255 257 259 261 263 265 267 269 271 273 275 276 278 280 281
213 213 214 215 215 215 215 214 214 214 214 214 216 218 218 217 217 217 218 218 219 219 220 221 222 223 225 227 229 230 231 231 228 226 224 222 222 223 223 221 221 222 223 225 227 227 228 230 230 230 230 230 230 230 230 229 229 230 231 234 235 235 237 239 241 242 244 247 248 250 252 254 256 258 259 261 263 265 268 270 272 274 276 277 280 282 283
212 214 215 215 215 216 215 213 213 214 214 213 214 217 219 218 217 217 217 217 218 219 219 220 221 222 223 226 228 228 230 231 231 229 226 222 220 222 223 224 225 224 222 223 225 225 227 229 229 229 228 227 227 227 227 226 226 227 229 232 235 236 237 238 240 242 244 247 250 252 255 257 259 260 261 262 263 265 267 269 272 274 276 278 281 283 284
211 213 215 215 215 216 215 213 212 214 214 213 213 215 217 218 218 217 217 217 218 218 219 220 221 222 223 225 227 227 228 230 232 232 229 224 220 220 222 225 227 226 224 223 224 225 226 228 230 230 230 228 227 227 227 227 228 229 231 234 236 238 239 239 241 243 245 248 250 252 255 257 259 261 263 264 265 267 269 271 274 277 279 280 282 283 285
212 213 215 215 215 215 215 212 212 213 214 213 212 213 216 218 218 217 217 217 218 218 219 220 221 222 223 224 226 226 227 228 230 232 232 228 223 220 220 223 225 227 226 226 226 226 227 228 229 231 232 231 230 229 229 230 231 232 234 237 239 240 242 243 244 245 247 249 250 252 254 256 258 260 262 264 266 268 270 273 275 277 279 281 282 284 285
214 214 215 216 216 216 215 213 212 213 214 213 212 213 215 218 218 216 216 217 217 218 218 220 221 221 222 224 225 226 226 227 228 231 232 231 227 223 220 221 223 225 226 227 228 229 230 230 230 231 233 234 235 234 234 234 235 237 238 240 242 244 245 247 248 250 251 252 253 255 256 258 259 261 263 265 268 270 272 274 276 278 279 281 283 285 286
214 215 216 216 216 216 215 214 213 212 212 212 212 213 214 216 217 216 216 216 217 217 218 219 220 221 222 223 225 226 226 227 227 229 231 232 231 228 224 222 222 223 224 226 228 230 231 232 232 233 234 235 237 238 239 239 239 241 242 244 246 247 249 251 252 254 255 256 257 258 259 261 263 265 266 268 270 272 275 276 278 280 282 283 285 286 287
213 215 216 217 217 216 215 214 213 211 210 211 213 213 214 215 217 217 216 216 217 218 218 219 220 221 222 223 224 225 226 227 227 228 230 231 231 231 229 226 224 223 223 224 226 228 231 232 233 234 235 236 237 239 240 241 242 244 245 247 249 250 252 253 254 256 257 258 260 261 262 263 265 266 268 270 272 274 276 277 279 281 283 285 286 287 288
213 214 216 217 217 216 216 215 214 213 211 211 213 214 215 215 217 217 217 217 217 218 218 219 219 221 222 223 224 225 226 227 227 228 229 231 231 232 231 231 229 227 226 226 226 228 229 231 232 233 234 235 236 238 240 242 244 246 247 249 250 252 253 255 256 258 259 260 261 263 264 265 266 268 270 272 273 275 276 278 280 282 284 285 287 288 289
213 214 215 216 216 216 215 215 214 214 212 210 211 214 215 215 216 217 217 217 217 218 219 219 219 220 221 222 224 225 226 227 228 228 229 230 231 232 232 232 232 232 230 229 229 230 230 231 232 233 234 235 237 238 240 243 245 246 248 250 251 253 255 256 257 259 259 261 262 264 265 266 267 269 271 272 274 276 277 279 281 282 284 286 288 289 291
215 215 215 216 216 215 215 215 214 214 213 211 210 212 214 215 215 216 216 217 217 218 219 219 220 220 221 222 224 225 226 227 228 229 229 230 230 231 232 233 233 234 234 233 233 234 234 234 234 235 236 237 238 240 242 244 246 247 249 251 253 254 256 257 258 259 261 262 264 265 266 268 269 270 271 273 274 276 278 280 282 284 285 287 288 290 291
217 216 216 216 217 217 216 216 215 215 215 212 211 212 214 215 215 215 216 217 218 218 219 220 220 221 221 222 224 225 226 227 228 229 230 230 231 231 232 233 234 235 235 236 237 237 238 238 238 239 239 240 241 242 244 246 247 249 250 252 254 255 257 258 260 261 262 264 265 266 267 269 270 271 272 274 275 277 279 281 283 284 286 287 289 290 291
217 217 216 215 216 217 217 217 216 216 215 213 212 212 214 215 215 215 216 217 218 218 219 220 221 221 222 222 224 225 226 227 228 229 231 231 232 232 232 233 234 235 236 237 238 239 240 240 241 241 242 243 244 245 247 248 250 251 252 253 255 257 258 260 261 263 264 265 266 267 268 269 271 272 273 275 276 278 279 281 283 284 286 288 289 290 291
216 217 216 215 215 216 217 217 216 216 215 213 213 213 214 214 214 214 215 217 218 218 219 220 221 222 222 223 224 225 226 227 228 229 231 232 233 233 233 233 234 235 236 238 239 240 241 242 243 244 245 246 247 248 249 250 251 252 254 255 256 258 259 261 262 263 264 265 267 268 269 270 271 273 274 276 277 279 280 281 283 284 286 287 289 290 291
215 216 216 215 215 215 216 217 217 216 215 214 213 213 214 214 214 214 215 216 217 218 219 220 220 221 223 223 225 226 227 227 227 229 230 232 233 234 234 234 235 235 236 237 239 241 242 243 245 246 247 248 249 250 251 252 253 254 255 256 257 258 259 261 262 263 265 266 267 269 270 271 272 274 275 276 277 279 280 281 283 284 286 287 288 289 290
214 215 216 216 215 215 215 216 216 216 215 214 213 213 214 215 214 214 215 216 217 218 219 220 220 221 223 224 225 227 228 228 228 228 230 231 232 233 234 235 236 236 237 237 239 240 242 244 245 246 248 249 250 252 253 254 255 256 256 257 258 259 260 261 262 264 265 266 268 269 270 271 272 274 275 276 277 278 280 281 283 284 286 287 288 289 290
214 215 215 216 215 214 214 215 216 216 216 214 213 213 214 215 215 215 215 216 217 218 219 220 220 221 223 224 225 227 228 229 229 229 230 231 233 234 234 235 236 237 238 239 239 240 242 243 245 246 248 249 251 252 253 254 256 257 258 259 260 261 262 263 264 265 266 267 268 269 270 271 272 274 275 276 277 279 280 282 283 285 286 287 287 288 289
215 215 216 216 216 215 214 214 215 216 216 215 213 213 214 215 215 216 216 216 217 218 218 219 221 222 223 224 225 227 228 229 230 231 231 231 233 234 235 235 236 238 239 240 240 241 242 243 244 246 247 248 250 251 253 254 255 257 258 259 261 262 263 264 265 265 266 267 268 269 271 272 273 274 275 277 278 280 281 282 283 284 285 286 286 287 288
216 216 216 217 217 216 215 214 215 215 216 215 214 213 214 215 216 217 217 217 217 218 218 219 221 222 223 224 225 227 228 229 230 232 232 232 233 234 235 235 237 239 240 240 241 241 242 243 244 245 246 247 249 250 252 253 254 256 257 259 260 261 262 264 264 265 266 267 268 270 271 272 273 274 276 277 278 279 280 281 282 283 284 285 285 286 287
217 217 217 217 217 216 215 215 214 215 215 215 215 214 214 214 216 217 217 218 218 218 219 219 221 222 223 224 225 226 228 229 230 231 233 233 234 235 235 236 237 239 240 241 241 242 243 243 244 245 246 247 248 249 250 252 253 255 256 257 259 260 261 262 264 265 266 267 268 269 270 272 273 274 275 276 277 278 279 279 280 281 283 283 284 285 286
218 218 218 218 218 217 216 215 215 215 215 215 215 214 214 214 215 216 217 218 218 219 219 220 221 222 224 224 224 225 227 228 229 231 232 233 233 234 235 236 237 239 241 242 243 243 243 244 245 245 246 247 248 249 250 251 252 253 255 256 257 259 260 261 262 264 265 266 267 268 269 270 271 272 273 274 275 276 277 278 279 280 281 282 283 284 285
219 219 219 219 219 219 218 216 215 215 215 215 216 215 214 214 215 216 217 218 219 219 220 221 222 223 224 225 225 225 227 228 229 231 233 234 233 233 234 236 237 238 240 242 243 244 245 246 246 246 247 247 248 249 250 251 252 253 254 255 256 258 259 260 261 262 263 264 265 267 267 268 269 270 271 273 274 275 276 277 278 280 281 282 283 284 285
220 220 220 220 221 221 220 219 217 216 215 216 216 216 215 215 216 216 217 218 219 220 221 222 223 223 224 225 225 225 226 228 229 231 233 234 235 235 236 237 238 239 239 241 242 244 246 247 247 247 248 249 250 251 251 252 252 253 254 255 256 257 259 260 261 262 263 264 265 266 268 268 270 271 272 273 274 275 277 278 279 280 281 282 283 284 285
221 221 221 221 221 222 222 221 220 218 217 216 216 217 217 216 216 217 217 218 219 220 222 223 224 224 225 225 226 226 227 228 229 231 232 234 235 235 236 237 238 239 240 241 242 243 245 246 247 248 249 250 251 252 253 253 254 255 255 256 257 258 259 260 262 263 264 265 266 267 268 269 270 271 272 274 275 276 277 278 279 280 281 282 283 284 285
222 222 222 223 222 222 222 222 222 220 219 217 217 218 218 218 217 217 218 219 220 221 222 224 225 225 225 225 226 226 227 228 230 231 233 234 235 236 237 238 239 240 240 242 243 244 244 246 247 249 250 251 252 253 253 253 254 255 256 257 258 259 260 261 263 264 265 266 267 268 269 270 271 272 273 274 275 276 277 278 280 281 282 282 283 284 285
223 223 223 223 223 223 223 223 222 222 221 219 218 218 219 219 219 219 219 220 221 222 223 224 225 226 227 226 226 227 228 229 230 232 233 234 235 236 237 238 239 240 241 242 243 244 245 246 247 249 250 251 252 253 254 254 255 256 258 259 260 261 261 263 264 265 266 266 267 268 269 270 271 272 273 274 275 276 277 278 279 280 281 282 283 284 285
223 224 224 223 223 223 223 223 223 222 222 221 219 219 219 219 220 220 221 221 222 223 224 225 226 227 228 228 228 228 229 230 231 232 233 234 235 236 237 238 239 241 242 243 244 245 245 246 247 249 250 252 253 254 255 255 257 258 259 260 261 261 262 263 264 265 266 267 268 269 270 270 271 272 273 274 275 276 277 278 278 279 280 281 282 284 284
220 222 223 222 222 222 222 222 222 222 222 221 220 219 218 219 220 221 222 222 224 224 225 226 227 228 229 229 229 229 230 231 232 232 233 235 236 237 238 239 240 241 242 243 244 245 246 247 248 249 250 251 252 254 255 256 257 258 259 260 261 261 262 263 264 264 266 267 268 269 270 271 271 272 273 274 275 276 276 277 278 279 280 281 282 282 283
215 218 221 221 221 220 220 220 221 221 221 221 221 219 219 219 220 221 222 223 225 226 226 227 228 229 230 231 231 230 231 232 233 234 235 235 236 237 238 239 240 241 242 243 244 245 246 247 248 249 250 251 252 254 255 256 257 258 259 260 261 261 262 263 264 265 266 266 268 269 270 271 272 272 273 274 275 275 276 277 277 278 279 280 280 280 280
207 211 214 217 219 218 217 216 216 217 218 219 219 219 218 218 219 220 221 223 225 226 227 228 229 230 231 232 232 232 232 233 234 235 235 236 237 238 239 240 241 242 243 244 245 246 247 248 249 250 251 252 253 254 255 256 257 258 259 260 261 262 263 263 264 265 266 266 267 268 269 270 271 272 273 273 274 275 276 276 277 277 278 278 277 277 277
192 196 201 206 211 213 213 212 211 212 214 215 217 217 217 218 219 220 221 222 223 225 226 227 228 230 231 231 232 232 233 233 234 235 236 237 238 238 239 240 241 242 243 244 245 246 247 248 249 250 251 252 253 254 255 256 257 258 259 260 261 262 263 264 265 265 266 267 267 268 269 270 270 271 272 273 274 274 275 275 276 276 276 276 275 275 276
179 184 188 194 199 204 206 207 207 208 209 211 212 213 215 216 218 220 222 223 224 225 226 227 228 229 231 232 232 233 234 234 235 236 237 237 238 239 240 241 242 243 244 245 246 247 248 249 249 250 251 252 253 254 255 256 257 258 259 260 261 262 263 264 264 265 266 267 267 268 269 269 270 271 271 272 273 273 274 274 275 275 275 275 275 276 276
179 180 182 185 190 194 197 200 202 203 205 207 209 210 212 213 214 217 219 221 223 224 226 227 229 230 231 232 233 234 234 235 236 237 238 238 239 240 241 242 243 244 244 245 246 247 248 249 250 251 252 253 254 254 255 256 257 258 259 260 261 262 262 263 264 265 266 266 267 268 268 269 270 271 271 272 272 273 273 273 273 274 274 275 275 276 276
182 182 182 184 186 188 190 193 196 198 200 203 205 207 208 210 212 213 216 218 221 222 224 226 228 229 231 232 233 234 235 235 236 237 238 239 240 240 241 242 243 244 245 246 247 248 248 249 250 251 251 252 253 254 255 256 257 258 258 259 260 261 262 262 263 264 265 266 266 267 268 268 269 270 270 271 271 272 272 273 273 274 274 275 275 275 276
186 187 189 189 187 186 188 192 194 195 197 199 202 204 206 208 209 211 213 215 218 220 222 224 226 228 230 231 233 234 235 236 236 237 238 239 240 241 242 243 244 245 246 247 247 248 249 249 250 250 251 252 253 254 255 255 256 257 258 259 259 260 261 261 262 263 264 264 265 266 266 267 268 268 269 269 270 271 271 272 273 274 275 275 275 275 276
190 193 195 195 193 190 191 193 195 196 196 197 199 202 204 207 208 210 212 214 215 218 220 223 225 226 228 230 232 233 234 235 236 237 238 239 240 241 242 242 243 244 245 246 247 248 249 250 251 251 251 252 253 253 254 255 256 257 257 258 259 260 260 261 262 262 263 264 264 265 265 266 266 267 267 268 268 269 270 271 271 272 273 273 274 274 274
194 197 200 200 198 196 196 196 197 197 198 198 199 201 203 206 208 210 212 213 215 216 218 220 223 225 227 229 230 232 233 235 236 237 238 239 240 241 242 242 243 244 245 246 247 249 250 251 252 252 253 253 253 254 254 255 256 257 258 258 259 259 260 261 261 262 263 264 265 265 266 266 267 267 267 267 268 268 268 269 270 270 271 271 272 272 273
Height
10723 10734 10745 10752 10760 10769 10776 10782 10786 10789 10794 10799 10805 10810 10812 10815 10817 10816 10817 10825 10835 10838 10841 10845 10846 10846 10850 10853 10856 10861 10864 10867 10869 10869 10872 10877 10882 10887 10892 10898 10900 10901 10905 10909 10911 10913 10915 10917 10919 10921 10924 10926 10929 10933 10936 10940 10943 10946 10949 10951 10953 10956 10958 10959 10960 10962 10965 10967 10968 10970 10971 10972 10973 10974 10975 10976 10976 10977 10978 10979 10980 10980 10981 10981 10981 10981 10981
10711 10723 10737 10747 10754 10760 10767 10773 10778 10782 10788 10794 10799 10801 10804 10809 10810 10809 10813 10820 10827 10831 10832 10835 10840 10844 10847 10851 10855 10857 10860 10862 10863 10864 10868 10872 10876 10882 10888 10894 10896 10899 10903 10906 10909 10911 10912 10914 10916 10918 10921 10923 10926 10929 10932 10936 10939 10942 10945 10947 10949 10952 10953 10955 10957 10959 10961 10962 10964 10966 10967 10969 10970 10970 10972 10973 10973 10974 10974 10975 10976 10977 10977 10977 10977 10977 10977
10705 10717 10730 10738 10744 10751 10759 10768 10775 10780 10784 10788 10791 10793 10798 10802 10804 10805 10808 10813 10820 10823 10824 10830 10839 10843 10845 10849 10852 10852 10853 10855 10857 10860 10863 10867 10873 10879 10885 10889 10892 10896 10900 10903 10904 10905 10907 10910 10912 10914 10917 10920 10923 10926 10928 10931 10935 10938 10940 10943 10945 10947 10949 10951 10953 10955 10956 10957 10960 10962 10964 10965 10966 10967 10968 10969 10969 10970 10971 10972 10973 10974 10974 10974 10974 10974 10973
10702 10713 10722 10729 10737 10745 10753 10762 10769 10774 10778 10782 10785 10789 10793 10796 10798 10800 10803 10808 10814 10816 10820 10828 10836 10839 10841 10844 10844 10844 10847 10851 10854 10857 10861 10865 10871 10875 10877 10881 10885 10889 10892 10894 10897 10899 10902 10905 10907 10910 10912 10915 10918 10921 10924 10928 10930 10933 10935 10938 10940 10943 10945 10947 10949 10951 10952 10954 10956 10958 10960 10961 10962 10963 10965 10965 10965 10966 10967 10969 10970 10970 10970 10970 10969 10969 10968
10698 10708 10715 10723 10730 10738 10746 10754 10762 10768 10773 10775 10777 10781 10786 10788 10792 10796 10799 10803 10805 10808 10816 10825 10830 10833 10834 10835 10837 10841 10845 10850 10853 10855 10858 10862 10866 10868 10871 10875 10878 10881 10885 10890 10894 10896 10898 10900 10903 10906 10909 10911 10914 10917 10920 10923 10925 10928 10930 10933 10936 10938 10940 10943 10945 10947 10949 10950 10952 10954 10956 10957 10959 10959 10961 10961 10962 10963 10964 10965 10965 10965 10966 10966 10965 10965 10964
10692 10698 10703 10709 10717 10728 10737 10745 10752 10756 10761 10765 10768 10774 10779 10783 10786 10788 10791 10794 10797 10803 10815 10820 10821 10825 10827 10829 10836 10841 10844 10847 10849 10851 10853 10857 10862 10864 10866 10869 10874 10879 10884 10888 10889 10891 10894 10896 10900 10903 10906 10908 10911 10913 10916 10918 10920 10923 10926 10928 10931 10934 10936 10939 10940 10943 10945 10947 10948 10950 10952 10954 10955 10955 10956 10958 10959 10960 10960 10960 10960 10960 10961 10961 10961 10961 10960
10682 10687 10690 10695 10709 10724 10731 10736 10742 10746 10754 10762 10764 10765 10768 10770 10772 10775 10782 10789 10793 10799 10808 10811 10812 10817 10823 10829 10835 10839 10840 10842 10843 10846 10849 10853 10857 10859 10861 10866 10872 10877 10880 10881 10883 10887 10890 10893 10897 10900 10902 10904 10907 10910 10912 10914 10917 10920 10923 10925 10927 10930 10933 10935 10936 10938 10941 10943 10945 10946 10947 10949 10950 10951 10951 10953 10955 10956 10956 10956 10956 10956 10957 10957 10957 10956 10955
10671 10673 10676 10687 10707 10718 10721 10729 10736 10740 10747 10752 10750 10752 10757 10760 10764 10772 10781 10787 10790 10797 10804 10803 10805 10812 10820 10827 10832 10833 10834 10835 10837 10842 10845 10849 10854 10858 10861 10866 10868 10871 10874 10876 10880 10884 10887 10890 10893 10896 10899 10901 10904 10907 10909 10912 10915 10917 10920 10922 10924 10926 10928 10930 10932 10934 10937 10939 10941 10942 10943 10944 10945 10946 10947 10948 10950 10951 10951 10951 10952 10952 10953 10952 10952 10951 10951
10659 10663 10671 10686 10700 10703 10709 10723 10728 10729 10736 10738 10737 10745 10752 10754 10761 10771 10778 10781 10785 10790 10790 10789 10796 10807 10816 10823 10825 10823 10825 10830 10836 10841 10846 10849 10854 10858 10859 10859 10861 10865 10869 10872 10875 10879 10882 10885 10888 10891 10895 10898 10900 10903 10905 10908 10910 10913 10916 10918 10920 10922 10924 10926 10929 10931 10933 10935 10936 10937 10938 10939 10940 10942 10943 10944 10945 10946 10947 10947 10947 10948 10948 10947 10946 10946 10945
10646 10654 10664 10675 10684 10691 10706 10718 10715 10716 10725 10728 10731 10741 10745 10746 10754 10763 10766 10769 10775 10779 10781 10786 10797 10808 10813 10816 10815 10816 10823 10831 10837 10841 10844 10846 10850 10851 10851 10852 10856 10861 10863 10866 10870 10874 10878 10881 10884 10886 10890 10893 10896 10899 10900 10903 10906 10909 10911 10913 10916 10918 10920 10922 10925 10927 10928 10930 10931 10932 10933 10934 10936 10937 10938 10939 10940 10941 10942 10942 10942 10943 10942 10942 10941 10940 10939
10637 10647 10655 10663 10674 10686 10697 10700 10698 10704 10716 10720 10726 10735 10735 10735 10743 10750 10753 10760 10769 10776 10783 10790 10799 10805 10805 10803 10805 10813 10825 10832 10835 10837 10840 10842 10845 10845 10846 10850 10854 10856 10858 10862 10867 10870 10873 10876 10879 10882 10886 10889 10892 10894 10896 10899 10901 10903 10906 10909 10911 10914 10916 10918 10920 10922 10923 10925 10926 10927 10929 10930 10931 10932 10933 10934 10935 10936 10937 10937 10937 10937 10936 10935 10935 10935 10934
10629 10640 10648 10654 10665 10673 10678 10681 10684 10694 10705 10710 10715 10721 10721 10726 10740 10748 10752 10761 10769 10774 10782 10789 10793 10794 10792 10792 10802 10817 10826 10830 10832 10834 10836 10839 10841 10842 10845 10848 10850 10852 10856 10859 10862 10865 10868 10871 10874 10878 10882 10885 10887 10890 10892 10894 10896 10898 10901 10904 10907 10909 10910 10912 10914 10916 10917 10919 10920 10922 10923 10924 10926 10927 10928 10929 10929 10930 10931 10931 10931 10930 10930 10929 10929 10928 10928
10618 10628 10635 10641 10649 10656 10663 10668 10672 10683 10695 10699 10701 10707 10714 10725 10739 10745 10748 10757 10765 10772 10781 10785 10785 10785 10786 10792 10805 10816 10820 10822 10826 10827 10829 10834 10836 10838 10842 10844 10846 10849 10853 10855 10857 10860 10862 10865 10870 10875 10877 10880 10882 10885 10887 10890 10891 10894 10897 10899 10901 10902 10904 10905 10908 10909 10911 10913 10914 10916 10917 10918 10920 10920 10921 10923 10923 10924 10925 10925 10925 10924 10924 10924 10923 10923 10923
10608 10616 10622 10626 10634 10643 10650 10657 10666 10679 10690 10691 10694 10705 10714 10723 10733 10739 10743 10752 10761 10769 10775 10776 10778 10783 10786 10791 10800 10807 10810 10815 10819 10820 10825 10830 10832 10835 10839 10841 10843 10847 10849 10850 10853 10856 10858 10861 10866 10868 10870 10874 10877 10879 10882 10884 10887 10889 10892 10893 10895 10897 10898 10900 10901 10903 10905 10907 10908 10910 10911 10912 10913 10914 10915 10916 10917 10918 10918 10919 10919 10919 10919 10919 10919 10918 10918
10599 10606 10610 10614 10621 10631 10640 10649 10661 10674 10682 10686 10693 10704 10711 10719 10729 10736 10740 10749 10758 10764 10768 10772 10777 10781 10782 10786 10794 10800 10805 10810 10814 10817 10822 10826 10828 10831 10835 10837 10840 10842 10844 10847 10850 10852 10854 10857 10860 10862 10865 10868 10870 10873 10876 10879 10881 10884 10885 10887 10889 10891 10893 10895 10896 10897 10899 10901 10902 10904 10905 10906 10907 10908 10909 10910 10910 10911 10912 10913 10914 10914 10914 10914 10914 10914 10914
10586 10593 10598 10603 10613 10624 10633 10641 10652 10664 10674 10682 10689 10697 10704 10714 10724 10729 10735 10745 10754 10759 10763 10769 10774 10777 10779 10783 10789 10794 10799 10804 10809 10814 10818 10820 10823 10826 10830 10833 10836 10838 10841 10844 10846 10848 10850 10852 10854 10857 10859 10862 10865 10868 10871 10873 10875 10877 10879 10881 10884 10885 10887 10889 10890 10892 10893 10895 10896 10898 10899 10901 10902 10903 10904 10905 10905 10906 10907 10908 10908 10908 10909 10909 10909 10909 10909
10573 10580 10586 10595 10607 10616 10622 10633 10647 10659 10669 10678 10685 10692 10700 10710 10718 10724 10731 10741 10746 10750 10757 10763 10767 10771 10775 10778 10781 10786 10793 10798 10803 10808 10812 10815 10819 10822 10826 10829 10832 10834 10838 10840 10841 10843 10845 10847 10849 10852 10854 10857 10860 10862 10864 10866 10869 10871 10874 10876 10877 10879 10881 10883 10884 10886 10888 10889 10890 10892 10894 10896 10897 10898 10899 10900 10901 10901 10902 10902 10903 10903 10903 10904 10904 10904 10904
10566 10574 10581 10591 10601 10607 10615 10632 10646 10654 10662 10671 10680 10688 10696 10704 10712 10719 10726 10733 10738 10744 10751 10756 10760 10765 10770 10772 10775 10780 10786 10791 10796 10801 10805 10810 10814 10818 10821 10824 10826 10829 10833 10835 10837 10839 10840 10842 10845 10847 10849 10853 10855 10856 10859 10861 10864 10867 10869 10870 10872 10873 10875 10877 10879 10881 10882 10884 10885 10887 10889 10890 10891 10892 10893 10895 10895 10896 10896 10897 10897 10898 10898 10899 10899 10898 10898
10559 10566 10572 10582 10592 10598 10609 10627 10638 10644 10652 10662 10673 10683 10690 10696 10704 10713 10719 10726 10732 10739 10745 10750 10755 10761 10765 10766 10769 10774 10779 10785 10789 10793 10798 10804 10808 10812 10816 10819 10821 10824 10828 10830 10832 10834 10836 10838 10840 10842 10845 10847 10849 10851 10854 10857 10859 10862 10864 10865 10867 10868 10870 10872 10874 10876 10877 10879 10881 10882 10884 10885 10886 10886 10887 10888 10889 10890 10890 10891 10892 10892 10892 10892 10893 10893 10893
10555 10559 10565 10575 10585 10591 10602 10620 10632 10639 10647 10657 10669 10679 10683 10688 10696 10706 10714 10720 10726 10732 10739 10743 10748 10753 10757 10760 10763 10768 10773 10778 10781 10785 10791 10796 10802 10806 10811 10813 10816 10819 10822 10825 10827 10829 10831 10833 10835 10838 10840 10842 10844 10847 10850 10852 10855 10857 10858 10860 10861 10863 10865 10867 10869 10871 10872 10874 10875 10877 10878 10879 10880 10881 10881 10882 10883 10884 10885 10886 10886 10886 10886 10886 10887 10887 10887
10551 10557 10563 10573 10582 10589 10601 10618 10629 10634 10642 10655 10666 10672 10676 10680 10689 10699 10707 10712 10719 10725 10731 10736 10741 10746 10750 10754 10758 10762 10766 10771 10775 10779 10783 10789 10795 10800 10804 10807 10810 10813 10816 10819 10821 10823 10825 10828 10831 10834 10836 10838 10840 10843 10845 10847 10849 10851 10853 10854 10856 10858 10860 10862 10863 10865 10866 10868 10869 10871 10872 10873 10874 10875 10875 10876 10877 10878 10879 10880 10879 10879 10880 10880 10881 10881 10881
10544 10552 10558 10565 10574 10584 10596 10609 10617 10625 10638 10650 10657 10662 10667 10674 10682 10691 10698 10705 10711 10717 10723 10729 10734 10740 10744 10748 10752 10756 10760 10764 10768 10772 10777 10782 10787 10792 10796 10799 10803 10806 10809 10813 10815 10817 10819 10823 10826 10829 10831 10834 10836 10838 10839 10841 10843 10845 10847 10848 10850 10853 10854 10856 10858 10858 10859 10862 10863 10864 10865 10867 10867 10868 10869 10869 10870 10872 10873 10873 10872 10872 10873 10874 10875 10875 10874
10537 10546 10552 10559 10569 10580 10591 10601 10611 10621 10633 10642 10647 10654 10663 10670 10677 10684 10692 10699 10705 10711 10717 10723 10729 10734 10738 10743 10746 10750 10754 10758 10763 10767 10771 10774 10779 10784 10788 10792 10795 10799 10804 10807 10810 10812 10814 10818 10821 10823 10826 10828 10831 10831 10833 10835 10837 10839 10840 10842 10845 10847 10848 10850 10851 10851 10853 10856 10856 10856 10858 10860 10860 10860 10861 10862 10864 10865 10865 10865 10865 10865 10866 10867 10867 10867 10867
10532 10540 10546 10553 10565 10577 10589 10599 10609 10620 10630 10640 10647 10653 10659 10665 10671 10678 10686 10693 10700 10705 10711 10718 10724 10728 10732 10737 10740 10744 10748 10752 10756 10760 10764 10767 10771 10776 10780 10784 10789 10793 10797 10801 10803 10806 10809 10812 10815 10818 10820 10822 10823 10825 10827 10829 10831 10832 10834 10836 10839 10841 10841 10843 10844 10845 10847 10849 10849 10849 10851 10852 10853 10854 10854 10855 10856 10857 10857 10857 10858 10859 10859 10859 10859 10859 10859
10525 10532 10539 10547 10560 10573 10583 10592 10603 10613 10622 10632 10639 10643 10647 10655 10662 10669 10677 10686 10693 10699 10706 10712 10717 10722 10726 10730 10734 10738 10742 10745 10749 10752 10756 10760 10764 10768 10773 10777 10781 10785 10789 10793 10796 10799 10802 10806 10808 10811 10813 10815 10817 10819 10822 10823 10824 10826 10828 10830 10833 10834 10835 10836 10837 10838 10840 10841 10842 10842 10843 10844 10846 10847 10847 10848 10849 10849 10848 10849 10851 10852 10852 10852 10852 10852 10851
10521 10528 10536 10546 10557 10568 10577 10586 10595 10603 10610 10619 10627 10633 10639 10646 10654 10663 10672 10681 10688 10694 10700 10704 10709 10715 10719 10723 10727 10731 10735 10738 10742 10744 10748 10752 10756 10760 10765 10769 10773 10777 10782 10786 10789 10792 10794 10798 10801 10803 10806 10808 10811 10813 10814 10815 10816 10819 10821 10824 10826 10827 10827 10828 10829 10831 10832 10834 10835 10835 10836 10837 10838 10838 10839 10840 10841 10841 10840 10840 10841 10843 10844 10844 10844 10844 10843
10518 10526 10535 10546 10557 10566 10575 10583 10590 10595 10602 10612 10622 10629 10635 10642 10651 10661 10670 10677 10682 10687 10692 10697 10702 10707 10712 10716 10720 10723 10727 10731 10734 10737 10739 10743 10747 10752 10756 10760 10765 10770 10775 10779 10782 10784 10786 10789 10793 10796 10798 10801 10804 10805 10806 10806 10809 10812 10815 10817 10817 10818 10819 10820 10821 10823 10825 10826 10827 10828 10828 10829 10830 10830 10831 10832 10833 10834 10833 10833 10833 10834 10834 10834 10835 10834 10834
10513 10521 10531 10543 10554 10562 10567 10573 10579 10586 10595 10606 10617 10625 10631 10638 10647 10655 10662 10668 10673 10678 10684 10689 10694 10698 10704 10708 10711 10714 10718 10722 10726 10728 10731 10734 10739 10744 10748 10753 10758 10763 10767 10770 10773 10775 10777 10779 10783 10786 10790 10793 10795 10797 10798 10799 10801 10804 10806 10808 10809 10810 10812 10813 10814 10815 10816 10817 10819 10819 10820 10821 10821 10822 10823 10823 10824 10825 10825 10825 10825 10825 10825 10826 10825 10824 10824
10502 10511 10521 10534 10544 10549 10554 10561 10570 10579 10588 10599 10608 10616 10623 10630 10639 10647 10653 10659 10664 10670 10675 10680 10684 10689 10695 10699 10703 10707 10710 10713 10718 10722 10725 10727 10731 10735 10740 10746 10752 10756 10759 10762 10764 10765 10767 10770 10774 10778 10782 10784 10786 10788 10790 10791 10793 10795 10797 10799 10801 10803 10804 10804 10806 10807 10808 10809 10810 10811 10812 10812 10813 10813 10814 10814 10814 10815 10815 10816 10816 10816 10817 10817 10817 10815 10814
10494 10504 10515 10525 10533 10538 10545 10554 10563 10571 10579 10589 10598 10606 10613 10621 10629 10637 10643 10648 10654 10660 10665 10670 10676 10681 10686 10690 10695 10698 10701 10705 10711 10716 10716 10718 10722 10726 10731 10737 10743 10747 10750 10753 10754 10756 10759 10763 10767 10770 10772 10774 10776 10778 10780 10782 10784 10786 10788 10790 10792 10793 10794 10796 10797 10798 10799 10800 10801 10802 10802 10803 10804 10804 10805 10805 10805 10805 10806 10807 10807 10807 10808 10808 10807 10806 10806
10485 10495 10505 10513 10520 10527 10537 10546 10554 10562 10570 10579 10589 10598 10605 10612 10621 10629 10634 10639 10645 10650 10655 10661 10667 10673 10677 10682 10686 10689 10691 10697 10703 10705 10705 10709 10713 10718 10723 10729 10733 10737 10740 10743 10746 10750 10753 10755 10758 10761 10763 10765 10767 10769 10771 10773 10774 10776 10778 10780 10782 10784 10786 10787 10788 10790 10791 10792 10792 10793 10793 10794 10795 10796 10796 10795 10795 10796 10797 10797 10797 10798 10799 10798 10797 10796 10796
10478 10487 10495 10502 10510 10519 10530 10539 10546 10554 10561 10570 10581 10590 10597 10604 10612 10619 10624 10629 10634 10639 10645 10653 10659 10664 10669 10673 10677 10679 10683 10688 10691 10693 10697 10702 10705 10708 10713 10720 10725 10728 10731 10735 10739 10742 10744 10747 10750 10753 10755 10757 10759 10760 10761 10762 10764 10766 10768 10770 10773 10775 10777 10778 10780 10782 10782 10783 10783 10784 10785 10785 10786 10786 10785 10785 10786 10787 10787 10788 10788 10788 10789 10789 10787 10785 10786
10474 10482 10489 10495 10503 10514 10524 10532 10539 10546 10554 10563 10573 10582 10588 10595 10602 10608 10613 10619 10625 10631 10638 10646 10651 10655 10660 10664 10667 10669 10673 10678 10681 10683 10689 10694 10695 10698 10704 10713 10718 10720 10723 10726 10729 10733 10735 10739 10742 10745 10746 10748 10749 10750 10752 10754 10756 10757 10760 10762 10764 10766 10767 10769 10770 10771 10772 10773 10773 10774 10775 10775 10776 10776 10776 10776 10776 10777 10778 10778 10777 10777 10778 10779 10777 10775 10775
10467 10474 10482 10489 10497 10506 10515 10523 10531 10539 10547 10556 10565 10573 10581 10588 10594 10599 10604 10611 10617 10624 10631 10637 10641 10645 10649 10652 10655 10659 10664 10669 10673 10674 10678 10684 10687 10690 10697 10705 10710 10712 10713 10715 10719 10723 10726 10729 10732 10735 10736 10739 10740 10741 10743 10745 10747 10749 10751 10753 10755 10757 10758 10759 10759 10760 10761 10763 10763 10764 10765 10765 10766 10766 10766 10767 10767 10768 10768 10768 10766 10766 10767 10769 10768 10766 10765
10460 10467 10474 10481 10489 10498 10507 10515 10524 10532 10540 10548 10556 10563 10571 10578 10583 10589 10596 10603 10610 10617 10622 10626 10630 10635 10637 10639 10644 10650 10654 10659 10663 10664 10668 10674 10678 10683 10690 10697 10700 10700 10702 10705 10708 10712 10716 10718 10721 10723 10726 10728 10730 10732 10734 10737 10739 10741 10743 10745 10746 10747 10748 10748 10749 10750 10752 10753 10753 10754 10755 10756 10757 10756 10757 10758 10758 10758 10758 10758 10756 10756 10757 10758 10757 10756 10755
10455 10461 10467 10473 10481 10490 10499 10507 10516 10525 10532 10539 10546 10553 10561 10567 10573 10580 10587 10594 10600 10606 10611 10615 10620 10623 10624 10627 10634 10640 10643 10647 10653 10656 10658 10662 10667 10674 10681 10686 10687 10689 10692 10695 10698 10701 10704 10707 10709 10712 10715 10718 10720 10723 10725 10728 10730 10731 10734 10736 10738 10738 10738 10738 10740 10741 10742 10743 10743 10744 10745 10747 10747 10747 10747 10748 10748 10749 10748 10748 10746 10746 10747 10747 10746 10745 10745
10450 10455 10461 10468 10476 10483 10490 10498 10507 10515 10523 10530 10538 10546 10553 10560 10565 10572 10578 10584 10590 10596 10601 10605 10609 10611 10612 10616 10624 10629 10633 10638 10645 10647 10646 10649 10657 10666 10671 10673 10675 10679 10683 10685 10687 10690 10693 10695 10697 10701 10704 10707 10710 10713 10715 10717 10719 10721 10724 10727 10728 10728 10727 10728 10730 10731 10732 10733 10733 10734 10735 10737 10737 10736 10736 10737 10738 10739 10738 10737 10736 10736 10737 10736 10735 10734 10733
10446 10450 10456 10462 10469 10476 10484 10492 10500 10508 10516 10524 10532 10539 10546 10552 10559 10565 10571 10576 10581 10587 10591 10593 10594 10597 10601 10607 10614 10621 10626 10631 10635 10637 10638 10642 10650 10658 10662 10663 10666 10670 10673 10675 10678 10681 10683 10684 10687 10690 10693 10696 10699 10702 10705 10707 10708 10710 10713 10715 10717 10718 10718 10718 10719 10720 10722 10722 10723 10723 10724 10726 10726 10726 10726 10727 10728 10728 10726 10725 10725 10726 10726 10724 10723 10723 10722
10441 10445 10450 10456 10463 10470 10478 10486 10495 10504 10512 10519 10526 10533 10540 10546 10551 10557 10562 10566 10572 10576 10578 10579 10582 10587 10592 10598 10605 10611 10617 10621 10624 10628 10631 10636 10642 10647 10651 10653 10656 10659 10662 10665 10668 10671 10673 10675 10677 10680 10682 10685 10688 10691 10693 10696 10698 10700 10702 10704 10706 10708 10708 10707 10708 10709 10710 10711 10712 10712 10713 10714 10715 10715 10715 10715 10716 10716 10715 10714 10713 10714 10714 10713 10712 10711 10710
10436 10440 10445 10450 10457 10464 10471 10479 10487 10496 10504 10513 10520 10527 10532 10537 10543 10549 10553 10557 10561 10564 10567 10569 10573 10578 10583 10589 10596 10603 10608 10612 10617 10621 10624 10628 10632 10637 10640 10643 10645 10648 10652 10655 10658 10661 10663 10665 10667 10670 10672 10675 10677 10680 10683 10685 10687 10689 10690 10692 10695 10696 10696 10696 10697 10698 10698 10699 10700 10701 10702 10702 10703 10703 10704 10704 10704 10704 10704 10703 10702 10701 10701 10701 10700 10699 10698
10433 10437 10441 10446 10452 10458 10464 10471 10479 10487 10496 10505 10513 10519 10525 10531 10537 10542 10545 10548 10552 10557 10559 10561 10565 10570 10574 10580 10588 10596 10601 10604 10608 10612 10615 10619 10623 10627 10630 10633 10635 10638 10641 10645 10648 10651 10653 10656 10658 10660 10662 10664 10667 10669 10671 10673 10675 10677 10679 10681 10683 10684 10685 10686 10686 10686 10687 10687 10688 10689 10690 10690 10691 10691 10692 10692 10692 10692 10692 10692 10691 10690 10689 10688 10687 10687 10687
10430 10433 10436 10441 10446 10451 10457 10463 10471 10479 10486 10493 10501 10509 10518 10525 10530 10533 10537 10542 10546 10549 10551 10553 10557 10563 10567 10573 10581 10589 10591 10593 10597 10602 10605 10608 10612 10616 10620 10623 10626 10628 10631 10634 10637 10640 10643 10645 10647 10649 10651 10653 10655 10657 10659 10661 10663 10665 10667 10669 10671 10672 10674 10675 10675 10675 10676 10676 10676 10676 10677 10678 10679 10679 10680 10680 10680 10680 10680 10680 10679 10679 10678 10677 10676 10675 10675
10428 10430 10432 10436 10440 10444 10449 10456 10462 10469 10475 10482 10490 10500 10510 10517 10522 10527 10532 10536 10536 10538 10541 10546 10551 10556 10560 10565 10572 10578 10581 10583 10588 10593 10596 10598 10602 10606 10609 10613 10616 10618 10621 10623 10626 10629 10631 10634 10636 10638 10640 10642 10643 10645 10647 10650 10651 10653 10655 10657 10658 10660 10661 10662 10663 10664 10665 10665 10664 10664 10665 10665 10666 10667 10668 10668 10668 10668 10668 10668 10667 10666 10665 10665 10665 10664 10663
10427 10429 10430 10432 10435 10439 10443 10449 10455 10461 10466 10473 10480 10490 10499 10507 10513 10519 10524 10526 10526 10529 10535 10541 10545 10549 10552 10556 10562 10568 10573 10576 10579 10583 10586 10589 10592 10596 10599 10602 10605 10608 10610 10612 10615 10617 10620 10622 10624 10627 10629 10630 10632 10634 10636 10638 10640 10641 10642 10644 10645 10646 10648 10650 10651 10652 10653 10654 10653 10653 10652 10653 10653 10654 10655 10656 10656 10655 10655 10656 10655 10654 10653 10653 10652 10652 10651
10427 10428 10429 10430 10432 10435 10438 10443 10448 10453 10458 10464 10471 10479 10487 10494 10499 10504 10510 10514 10518 10523 10529 10534 10537 10540 10543 10546 10551 10558 10564 10567 10568 10571 10574 10578 10581 10585 10589 10592 10594 10596 10599 10601 10604 10606 10609 10611 10613 10615 10617 10619 10621 10623 10625 10626 10628 10629 10630 10631 10633 10634 10636 10637 10639 10640 10641 10641 10642 10642 10641 10641 10641 10641 10642 10643 10643 10643 10643 10643 10642 10642 10642 10641 10641 10640 10640
10426 10427 10428 10429 10430 10432 10435 10438 10442 10446 10450 10456 10462 10469 10477 10483 10489 10493 10498 10503 10507 10512 10518 10522 10525 10528 10531 10535 10540 10546 10550 10553 10555 10559 10563 10566 10570 10574 10578 10580 10582 10585 10588 10590 10593 10595 10598 10600 10602 10604 10606 10608 10610 10612 10613 10614 10615 10616 10618 10619 10621 10622 10624 10625 10626 10627 10628 10628 10629 10630 10630 10629 10629 10629 10629 10630 10630 10631 10630 10630 10629 10629 10629 10629 10628 10628 10628
10425 10426 10427 10428 10429 10430 10432 10435 10438 10441 10445 10449 10454 10461 10467 10473 10479 10485 10490 10494 10499 10504 10509 10512 10516 10519 10522 10525 10530 10535 10540 10543 10547 10550 10554 10557 10561 10564 10567 10569 10572 10574 10577 10580 10582 10585 10587 10589 10591 10593 10595 10596 10598 10600 10601 10602 10603 10605 10606 10607 10609 10610 10611 10612 10613 10614 10614 10615 10616 10617 10617 10617 10617 10617 10617 10618 10618 10618 10617 10617 10616 10616 10616 10616 10616 10616 10616
10423 10424 10425 10426 10428 10429 10430 10432 10434 10437 10441 10444 10448 10453 10458 10463 10469 10474 10479 10484 10490 10495 10500 10503 10507 10510 10513 10516 10520 10526 10531 10534 10537 10540 10543 10547 10550 10554 10556 10559 10562 10564 10567 10569 10571 10574 10576 10578 10579 10581 10582 10584 10586 10588 10589 10590 10591 10593 10594 10595 10596 10597 10598 10599 10600 10601 10601 10602 10603 10604 10604 10604 10605 10605 10605 10606 10605 10604 10604 10603 10603 10603 10604 10604 10604 10604 10603
10422 10423 10424 10425 10426 10427 10429 10430 10432 10434 10437 10440 10443 10447 10451 10456 10460 10465 10469 10474 10479 10484 10488 10492 10495 10499 10503 10506 10510 10515 10519 10523 10526 10529 10532 10536 10540 10543 10546 10549 10552 10554 10556 10558 10560 10562 10564 10565 10567 10569 10570 10572 10574 10575 10576 10577 10578 10580 10581 10582 10584 10585 10586 10587 10587 10588 10588 10589 10590 10591 10591 10592 10592 10593 10593 10592 10591 10590 10590 10590 10590 10591 10592 10592 10591 10590 10590
10421 10422 10423 10424 10425 10426 10427 10428 10430 10431 10433 10436 10439 10442 10445 10449 10452 10456 10460 10465 10469 10473 10477 10481 10484 10488 10492 10495 10499 10503 10507 10511 10515 10518 10521 10525 10529 10532 10536 10539 10541 10543 10544 10546 10548 10549 10550 10552 10554 10556 10558 10559 10560 10561 10563 10564 10565 10566 10568 10569 10571 10572 10573 10574 10575 10576 10577 10577 10578 10578 10579 10579 10580 10581 10581 10580 10579 10578 10578 10578 10578 10579 10579 10579 10577 10576 10576
10418 10419 10420 10422 10423 10423 10424 10426 10427 10429 10430 10432 10435 10438 10440 10443 10446 10449 10452 10456 10460 10464 10467 10471 10474 10478 10481 10485 10488 10491 10495 10499 10503 10506 10510 10514 10517 10520 10523 10527 10529 10530 10532 10533 10535 10536 10537 10538 10540 10543 10545 10547 10548 10549 10550 10551 10552 10553 10555 10556 10558 10559 10560 10561 10562 10563 10565 10565 10565 10566 10566 10567 10567 10569 10570 10569 10568 10567 10567 10567 10567 10568 10568 10566 10564 10564 10564
10414 10415 10416 10418 10419 10420 10421 10422 10424 10425 10427 10428 10430 10433 10435 10438 10441 10443 10446 10449 10452 10455 10458 10461 10464 10467 10470 10474 10477 10480 10483 10487 10491 10495 10499 10502 10505 10508 10510 10513 10516 10518 10519 10521 10522 10524 10525 10526 10528 10530 10531 10533 10535 10536 10537 10539 10540 10540 10541 10542 10544 10546 10547 10548 10549 10551 10552 10553 10552 10552 10553 10553 10554 10555 10557 10557 10556 10555 10555 10555 10555 10556 10555 10553 10552 10551 10551